Wind_Speed
9 9 9 9 9 9 10 10 10 10 10 11 11 10 10 10 10 10 10 11 11 11 12 12 11 11 11 11 11 11 11 11 11 11 11 11 11 11 11 11 11 11 11 11
10 10 10 10 10 10 11 11 11 11 12 12 12 11 10 10 10 11 11 11 11 12 12 12 12 11 11 12 12 12 12 12 12 12 12 12 11 11 11 11 11 10 11 11
11 11 11 11 12 12 12 12 12 13 13 13 13 12 12 12 12 12 12 11 12 12 12 12 12 12 12 12 13 13 13 13 12 12 13 12 12 12 12 12 11 11 11 11
13 12 12 13 13 13 13 13 14 13 14 14 14 13 12 13 12 12 12 12 12 12 12 12 12 12 12 13 13 13 13 13 13 13 13 13 13 13 13 12 12 12 12 12
13 13 14 14 14 14 14 14 14 14 14 15 14 14 13 13 13 13 13 13 13 13 13 13 13 13 13 13 13 14 14 14 14 14 14 13 13 14 13 13 13 13 13 12
14 14 14 15 14 14 15 15 15 15 15 15 15 15 14 14 13 13 14 14 14 14 14 14 14 14 14 14 14 14 14 14 14 14 14 14 14 14 14 14 13 13 13 13
14 14 14 15 15 15 15 15 15 15 15 15 15 15 15 15 15 15 15 16 15 15 15 15 15 15 15 15 14 14 14 15 15 15 15 15 15 15 15 15 15 14 14 14
14 15 15 15 15 16 15 15 15 16 16 16 16 16 17 16 16 16 17 17 16 16 16 15 16 16 17 16 15 15 15 15 15 16 16 16 16 16 16 16 16 15 15 15
15 15 15 15 15 16 15 16 16 17 17 17 17 17 18 17 17 17 17 17 17 17 16 16 17 17 17 16 16 16 16 15 16 16 17 17 17 17 17 17 17 16 16 16
15 16 16 16 16 16 16 16 17 17 17 17 17 17 18 18 18 18 17 17 17 17 17 17 17 17 17 17 17 17 17 17 16 17 18 18 18 18 18 18 18 17 17 17
16 17 17 17 17 17 17 17 17 18 18 18 18 18 18 19 19 19 18 18 18 18 18 18 18 18 18 18 17 17 17 17 17 18 18 19 19 19 19 18 18 18 18 19
16 17 17 17 18 18 18 18 18 19 19 19 20 20 19 19 20 20 19 19 19 19 19 18 18 18 18 19 19 19 18 18 18 19 19 19 20 19 19 19 19 18 18 18
16 17 17 18 18 19 19 19 20 20 21 21 21 20 20 20 21 22 21 20 20 20 20 19 19 19 19 19 20 20 19 19 19 19 19 19 20 20 20 20 19 19 18 19
18 18 18 18 19 20 20 20 20 21 22 22 22 21 21 21 22 22 22 21 21 21 21 21 20 20 20 20 20 20 20 20 20 20 20 20 20 20 20 20 20 19 19 20
18 19 19 20 20 21 21 21 21 22 22 23 22 22 22 23 23 22 22 23 23 23 23 22 22 22 22 21 21 21 21 22 21 21 21 21 21 21 20 20 20 20 20 20
19 20 20 20 21 21 21 21 22 22 22 23 23 23 23 24 24 24 23 23 24 24 24 24 23 23 23 22 23 23 23 23 22 22 22 22 21 21 21 20 20 20 21 21
20 20 20 20 21 22 22 21 22 22 22 22 23 24 24 25 25 24 25 25 25 24 25 24 24 24 24 24 24 24 23 23 23 23 22 22 22 21 22 22 21 21 21 21
20 21 21 21 22 23 22 21 21 22 22 23 23 23 24 24 25 25 25 25 25 25 25 25 25 25 25 25 25 24 24 24 24 24 23 23 23 22 22 22 22 22 22 22
20 21 22 22 23 23 22 22 21 22 22 23 23 23 24 24 25 25 25 25 25 25 25 25 25 26 26 26 26 25 25 24 24 25 25 24 24 23 23 23 23 23 23 23
21 21 22 22 23 23 23 23 23 23 24 24 24 24 24 24 25 25 25 25 25 26 26 26 26 26 26 26 26 25 25 25 25 25 25 25 25 25 24 24 24 24 25 25
21 22 22 23 24 24 24 23 23 24 25 25 25 24 24 25 25 25 26 27 27 27 27 27 27 27 26 26 26 25 26 26 26 26 26 26 25 25 25 25 25 25 25 26
22 23 23 24 24 24 24 24 24 25 25 26 26 26 26 26 26 26 27 27 28 28 28 28 28 28 28 27 26 26 27 27 27 27 27 27 27 27 27 27 27 27 27 28
22 22 23 23 23 24 24 24 25 25 26 26 27 27 27 27 27 27 28 28 29 29 29 29 30 29 29 29 29 28 28 28 29 28 29 29 28 28 28 28 28 28 28 28
22 23 24 24 23 23 24 25 25 26 26 27 27 28 28 28 28 28 28 29 29 30 30 30 30 30 30 30 30 30 29 29 29 30 29 29 29 29 29 29 28 27 26 26
24 24 25 24 24 24 24 25 26 26 27 28 28 28 28 28 29 28 29 29 30 30 29 30 30 30 31 31 31 30 30 29 29 29 29 28 29 30 29 28 27 27 26 26
24 24 25 25 25 26 26 26 26 27 27 27 27 28 28 29 29 29 28 29 29 29 28 28 29 30 30 30 30 30 30 29 29 28 28 27 27 27 27 27 27 26 26 26
Wind_Direction
265 266 268 272 275 279 283 286 289 291 292 291 290 290 292 294 295 298 295 289 287 291 295 294 290 288 288 287 286 285 289 291 293 297 296 295 295 294 293 289 288 284 282 281
263 264 266 269 275 281 283 286 287 288 290 291 290 289 287 286 291 294 296 295 290 291 295 294 292 290 288 286 287 285 286 287 289 294 297 295 294 295 295 295 293 289 286 280
263 264 266 270 275 280 282 284 285 287 289 288 288 286 284 283 288 292 294 297 295 293 294 293 293 293 292 289 287 286 285 282 285 291 296 295 292 292 293 292 290 289 287 284
263 264 266 270 273 277 279 282 284 284 286 286 287 285 282 284 287 290 293 293 295 295 294 293 290 290 291 289 287 284 286 284 285 287 291 292 292 290 290 288 287 288 286 284
265 266 268 270 273 275 277 281 283 283 283 283 284 283 282 282 284 285 288 289 292 294 292 290 288 286 287 287 287 284 283 284 284 285 287 290 291 290 289 287 285 287 282 280
266 267 269 270 272 274 276 280 281 282 282 280 281 280 281 281 282 282 284 287 292 291 289 287 285 285 286 286 288 286 283 283 281 281 283 287 289 287 286 286 286 284 281 278
268 269 270 271 272 272 274 278 281 283 281 279 278 277 279 280 281 280 282 285 290 291 288 286 286 285 286 287 287 287 283 282 281 281 282 284 285 285 283 283 281 279 277 276
271 272 272 272 272 272 273 274 276 277 278 277 279 279 280 281 282 282 282 283 286 288 287 284 286 285 284 284 284 286 284 281 280 279 281 283 283 283 283 281 281 277 276 276
272 274 273 273 272 273 274 273 273 275 275 275 277 281 280 280 283 284 284 283 284 285 286 285 285 284 283 284 284 284 284 282 281 279 280 282 283 282 282 281 279 277 275 275
274 275 276 275 273 272 274 275 275 275 276 277 279 281 281 282 283 283 284 284 283 282 284 286 285 284 284 285 284 282 283 281 280 280 281 281 282 282 281 282 279 275 275 274
275 277 278 277 276 276 275 273 273 274 274 277 280 281 282 283 284 284 285 284 283 282 282 284 284 283 285 285 283 280 280 280 279 280 281 281 281 282 282 282 282 279 278 276
277 278 278 278 278 277 277 276 275 275 275 275 277 280 281 281 282 283 283 284 284 283 284 285 287 286 285 284 283 281 280 281 281 282 282 281 280 282 283 281 281 278 277 278
278 279 280 280 279 279 279 277 275 274 274 274 275 279 281 281 282 283 284 284 284 284 283 284 286 286 284 284 283 281 282 283 283 283 282 281 281 281 282 282 280 279 276 276
278 279 280 281 282 282 281 279 276 275 274 275 276 277 279 280 282 284 285 285 283 282 282 282 283 284 281 282 283 282 282 282 282 282 282 280 280 281 281 281 280 278 276 275
277 279 280 282 282 282 283 282 279 276 276 276 277 276 278 279 281 284 286 285 283 281 281 281 281 281 281 280 281 282 282 282 282 282 281 281 280 280 281 281 279 277 275 274
277 280 282 282 282 282 284 283 281 280 279 277 276 276 277 279 280 282 283 284 283 281 280 280 279 280 281 281 280 280 281 281 281 281 281 279 280 279 279 280 278 276 275 274
279 282 284 285 284 283 283 283 282 281 280 279 278 277 277 278 280 281 282 282 283 282 280 278 278 279 280 280 279 280 279 279 279 280 280 278 278 279 278 278 278 276 275 275
281 283 285 287 287 286 287 285 283 283 282 282 281 280 279 278 279 281 281 282 283 282 281 280 279 279 279 279 278 278 279 279 278 278 278 278 276 279 280 279 278 276 275 276
281 284 286 288 288 289 287 286 284 283 283 284 284 283 282 281 281 281 281 282 284 283 281 281 280 280 279 278 277 276 276 278 278 278 277 277 275 276 279 280 279 277 276 275
280 283 287 289 289 290 290 287 286 285 284 287 287 286 284 283 281 280 280 280 282 283 282 281 281 280 280 279 277 276 276 277 278 279 277 276 275 277 278 281 280 279 277 277
280 284 286 288 289 289 288 288 288 287 287 287 287 287 288 285 284 282 280 280 281 282 282 282 282 281 281 280 280 278 278 279 279 278 276 275 275 276 277 279 279 280 279 278
280 283 286 288 289 290 289 289 288 287 287 287 288 289 289 288 286 283 282 282 282 281 281 281 281 281 280 280 280 279 278 278 278 277 275 274 273 274 275 277 279 279 280 278
279 282 284 287 289 289 289 289 288 287 287 287 288 288 288 288 287 285 283 282 283 282 282 281 280 279 278 278 279 279 278 277 277 276 275 274 273 274 274 276 278 280 280 279
279 280 283 286 289 290 290 289 288 287 287 287 288 288 288 288 288 286 285 283 283 283 282 280 278 277 277 278 278 278 277 277 277 278 277 276 274 274 275 276 276 278 280 279
279 280 282 285 287 289 291 289 287 287 287 288 288 288 288 289 289 287 286 285 285 284 283 280 278 278 278 278 278 278 278 276 277 277 276 275 275 276 276 275 276 276 277 277
278 280 281 284 286 287 290 291 291 289 289 289 289 290 290 289 287 287 288 289 288 287 285 283 281 280 279 279 278 278 279 277 277 276 276 275 275 275 276 274 275 274 274 275
Height
5867 5868 5867 5867 5867 5867 5867 5866 5865 5865 5863 5862 5861 5860 5860 5858 5857 5856 5854 5853 5852 5852 5851 5850 5849 5849 5848 5847 5846 5845 5844 5842 5841 5840 5839 5838 5837 5836 5835 5833 5832 5831 5830 5829
5865 5865 5865 5864 5864 5864 5864 5863 5862 5862 5860 5860 5859 5858 5857 5856 5855 5853 5852 5851 5850 5849 5848 5847 5846 5846 5845 5844 5843 5842 5841 5840 5839 5837 5836 5835 5834 5833 5832 5831 5829 5828 5827 5826
5861 5862 5861 5861 5861 5861 5861 5860 5859 5859 5858 5857 5856 5856 5855 5853 5852 5851 5850 5848 5847 5846 5845 5844 5843 5842 5841 5840 5839 5838 5837 5836 5835 5835 5834 5832 5831 5830 5829 5828 5826 5825 5824 5823
5857 5858 5858 5858 5858 5858 5857 5857 5856 5855 5855 5854 5854 5853 5852 5850 5849 5848 5847 5846 5844 5843 5842 5841 5840 5839 5838 5837 5836 5835 5834 5833 5832 5831 5831 5829 5828 5827 5826 5824 5823 5822 5821 5820
5854 5854 5854 5854 5854 5854 5854 5853 5853 5852 5851 5851 5850 5849 5849 5847 5846 5845 5844 5842 5841 5840 5838 5837 5836 5835 5835 5834 5833 5832 5831 5830 5829 5828 5827 5826 5824 5823 5822 5821 5820 5819 5818 5817
5850 5850 5850 5850 5850 5850 5849 5850 5849 5848 5848 5848 5847 5846 5845 5844 5843 5842 5840 5839 5838 5837 5835 5834 5833 5832 5831 5830 5829 5828 5827 5826 5825 5824 5823 5822 5821 5820 5819 5818 5816 5815 5814 5813
5846 5846 5846 5846 5846 5846 5846 5846 5846 5845 5844 5844 5843 5842 5842 5840 5839 5838 5837 5835 5834 5833 5831 5830 5829 5828 5827 5826 5825 5824 5823 5822 5821 5820 5819 5818 5817 5816 5815 5814 5812 5812 5811 5809
5841 5842 5842 5841 5842 5841 5841 5842 5843 5842 5841 5840 5838 5838 5838 5836 5835 5833 5833 5831 5830 5829 5827 5826 5825 5824 5823 5822 5821 5819 5818 5817 5817 5816 5815 5814 5813 5812 5811 5809 5808 5807 5807 5805
5837 5838 5837 5837 5837 5837 5837 5837 5837 5837 5835 5835 5834 5834 5832 5831 5830 5829 5828 5827 5826 5825 5823 5822 5821 5819 5818 5817 5816 5815 5814 5813 5812 5811 5810 5809 5808 5807 5806 5805 5804 5803 5802 5801
5832 5833 5833 5832 5832 5832 5832 5832 5832 5831 5831 5830 5830 5829 5829 5826 5826 5825 5823 5822 5821 5820 5819 5817 5816 5815 5813 5812 5811 5810 5809 5808 5807 5806 5805 5804 5803 5802 5801 5800 5799 5798 5797 5796
5828 5828 5828 5828 5827 5827 5827 5827 5826 5826 5826 5826 5825 5827 5823 5822 5820 5819 5819 5817 5816 5815 5814 5813 5812 5810 5809 5807 5806 5805 5804 5803 5802 5801 5800 5799 5798 5797 5795 5794 5793 5793 5792 5791
5823 5823 5823 5823 5822 5821 5821 5821 5821 5822 5820 5820 5820 5822 5817 5816 5815 5814 5813 5812 5811 5810 5809 5808 5806 5805 5804 5802 5801 5800 5798 5797 5796 5795 5794 5793 5792 5791 5790 5789 5788 5787 5786 5785
5818 5819 5818 5818 5819 5817 5816 5816 5815 5815 5814 5814 5814 5816 5812 5810 5809 5808 5807 5806 5805 5804 5803 5802 5801 5800 5798 5797 5796 5794 5793 5791 5791 5790 5788 5787 5786 5785 5784 5783 5782 5781 5780 5779
5813 5813 5814 5814 5812 5811 5810 5810 5809 5809 5808 5808 5808 5808 5806 5804 5803 5802 5801 5800 5799 5798 5797 5796 5795 5794 5793 5791 5790 5788 5787 5786 5785 5784 5782 5781 5780 5779 5778 5777 5776 5775 5774 5773
5808 5808 5808 5807 5806 5805 5804 5804 5803 5802 5802 5801 5801 5800 5799 5798 5797 5796 5795 5794 5793 5792 5791 5790 5789 5788 5786 5785 5784 5782 5781 5780 5779 5777 5776 5775 5774 5773 5772 5771 5770 5768 5767 5767
5803 5803 5802 5802 5800 5799 5799 5798 5797 5796 5795 5794 5794 5794 5792 5791 5790 5789 5788 5787 5786 5785 5784 5783 5782 5781 5779 5778 5777 5776 5774 5773 5772 5771 5770 5768 5767 5766 5765 5764 5763 5762 5761 5760
5797 5797 5796 5796 5794 5793 5793 5792 5790 5789 5788 5788 5787 5787 5785 5784 5783 5782 5781 5780 5779 5777 5776 5775 5774 5773 5772 5771 5770 5769 5768 5766 5765 5764 5763 5762 5761 5760 5759 5757 5756 5755 5754 5753
5792 5791 5790 5789 5789 5787 5789 5785 5784 5783 5782 5781 5780 5779 5778 5777 5775 5774 5773 5772 5771 5770 5769 5768 5766 5765 5764 5763 5762 5761 5760 5759 5758 5757 5756 5755 5754 5753 5752 5750 5749 5748 5747 5746
5786 5785 5784 5783 5781 5781 5781 5779 5777 5776 5775 5774 5773 5772 5770 5769 5768 5767 5765 5764 5763 5762 5761 5759 5758 5757 5756 5755 5754 5753 5752 5751 5750 5749 5748 5747 5746 5746 5745 5743 5742 5741 5739 5739
5780 5779 5778 5777 5775 5775 5775 5773 5771 5770 5769 5768 5766 5764 5763 5761 5761 5760 5758 5756 5755 5754 5752 5751 5750 5749 5747 5746 5745 5745 5744 5743 5742 5741 5740 5739 5738 5738 5737 5736 5734 5733 5732 5731
5773 5772 5771 5770 5768 5768 5767 5765 5764 5764 5763 5760 5758 5756 5755 5753 5752 5751 5749 5748 5747 5745 5744 5743 5741 5740 5739 5738 5737 5736 5736 5735 5734 5733 5732 5731 5730 5729 5729 5728 5726 5726 5724 5723
5767 5766 5765 5763 5762 5763 5760 5758 5757 5756 5753 5751 5750 5748 5747 5745 5743 5742 5740 5739 5738 5736 5735 5734 5733 5732 5731 5729 5729 5728 5727 5726 5725 5724 5723 5722 5721 5721 5720 5719 5718 5717 5716 5715
5760 5759 5757 5757 5758 5754 5752 5750 5749 5747 5745 5743 5742 5740 5738 5737 5735 5733 5731 5730 5728 5727 5726 5725 5723 5722 5721 5720 5720 5719 5718 5717 5715 5714 5713 5712 5712 5711 5711 5710 5709 5708 5707 5706
5753 5751 5750 5749 5749 5747 5745 5742 5741 5739 5737 5735 5733 5731 5730 5728 5726 5724 5722 5720 5719 5717 5716 5715 5714 5713 5712 5711 5710 5709 5708 5707 5706 5705 5704 5703 5702 5701 5701 5700 5699 5699 5698 5697
5745 5743 5743 5742 5741 5739 5737 5735 5733 5731 5729 5727 5725 5722 5720 5718 5717 5715 5713 5710 5709 5707 5706 5705 5704 5703 5702 5701 5700 5699 5698 5697 5696 5695 5694 5693 5692 5691 5691 5690 5690 5689 5689 5687
5737 5736 5735 5734 5733 5731 5729 5727 5725 5722 5720 5718 5716 5714 5712 5709 5707 5705 5703 5701 5699 5697 5696 5694 5693 5692 5691 5690 5689 5689 5688 5687 5686 5685 5684 5683 5683 5682 5681 5681 5680 5680 5679 5678